[[{"header":{"parameterUnit":"m.s-1","parameterCategory":1,"la1":30.2991,"la2":30.254,"lo1":-89.0895,"lo2":-89.0444,"dy":0.0017,"dx":0.0017,"nx":28,"ny":28,"refTime":"2024-06-18T03:00:00:Z","depth":0,"parameterNumber":2,"parameterNumberName":"U-component_of_WINDS"},"data":[0,0,0,0,0,0,0,0,0,0,0,0,0,0,0,0,0,0,0,0,0,0,0,0,0,0,0,0,0,0,0,0,0,0,0,0,0,0,0,0,0,0,0,0,0,0,0,0,0,0,0,0,0,0,0,0,0,0,-7.4174,-7.4174,0,-7.4136,-7.4135,-7.4135,-7.3821,-7.3813,-7.3805,-7.3798,-7.3766,-7.3772,-7.3779,0,0,0,0,0,0,0,0,0,0,0,0,0,-7.3982,-7.3987,-7.4174,-7.4174,-7.4173,-7.4136,-7.4135,-7.4135,-7.3822,-7.3813,-7.3803,-7.3795,-7.3764,-7.3772,-7.3779,0,0,0,0,0,0,0,0,0,0,0,0,0,-7.4017,-7.3989,-7.4174,-7.4013,-7.3998,-7.4136,-7.4135,-7.4135,-7.3824,-7.3813,-7.3801,-7.379,-7.3762,-7.3771,-7.378,-7.4073,0,0,-7.381,-7.3814,0,0,0,0,0,0,0,0,-7.4016,-7.4025,-7.4037,-7.4024,-7.4008,-7.3971,-7.4055,-7.4114,-7.3827,-7.3891,-7.3798,-7.3784,-7.3844,-7.3846,-7.3865,-7.4071,-7.407,-7.3811,-7.3816,-7.382,-7.3823,0,0,0,0,0,0,0,-7.4014,-7.4025,-7.4159,-7.4038,-7.402,-7.3944,-7.3936,-7.4065,-7.3934,-7.3884,-7.3861,-7.3861,-7.3834,-7.3857,-7.3862,-7.407,-7.381,-7.3819,-7.3825,-7.3828,-7.4512,-7.4524,0,0,0,0,0,0,-7.4033,-7.4025,-7.416,-7.4158,-7.3983,-7.3957,-7.3948,-7.3995,-7.3931,-7.391,-7.3871,-7.3846,-7.3846,-7.3851,-7.386,-7.4196,-7.382,-7.3829,-7.3835,-7.45,-7.4515,-7.4528,0,0,0,0,0,0,-7.403,-7.4048,-7.4162,-7.4085,-7.4094,-7.3972,-7.4028,-7.4,-7.4022,-7.3921,-7.3896,-7.3917,-7.3837,-7.3846,-7.4021,-7.4191,-7.3834,-7.3842,-7.4485,-7.4504,-7.4522,-7.4873,0,0,0,0,0,0,-7.4026,-7.4049,-7.4158,-7.409,-7.4099,-7.4324,-7.4038,-7.4008,-7.4038,-7.4006,-7.3958,-7.3939,-7.3828,-7.4009,-7.4031,-7.4197,-7.385,-7.4469,-7.4494,-7.4516,-7.4846,-7.4902,-7.4949,0,0,0,0,0,-7.402,-7.426,-7.4165,-7.4183,-7.4232,-7.4334,-7.4339,-7.4205,-7.4054,-7.4162,-7.4097,-7.3941,-7.4169,-7.4029,-7.4052,-7.4224,-7.4458,-7.4487,-7.4514,-7.4823,-7.4891,-7.4948,0,0,0,0,0,0,-7.4355,-7.4249,-7.4141,-7.4367,-7.4362,-7.4281,-7.4414,-7.4282,-7.4321,-7.429,-7.4123,-7.4115,-7.4316,-7.4287,-7.4133,-7.4502,-7.4286,-7.432,-7.4514,-7.4577,-7.4628,-7.4631,-7.3858,0,0,0,0,0,-7.4454,-7.4544,-7.4447,-7.4655,-7.4657,-7.4538,-7.4577,-7.4473,-7.4462,-7.4459,-7.4406,-7.4404,-7.4473,-7.4524,-7.4583,-7.4841,-7.4825,-7.497,-7.5022,-7.5065,-7.5096,-7.5228,-7.5291,-7.462,-7.462,-7.4619,0,0,-7.4662,-7.4615,-7.4682,-7.4721,-7.4704,-7.4802,-7.4538,-7.4653,-7.4724,-7.4477,-7.4638,-7.46,-7.4586,-7.4803,-7.4896,-7.4785,-7.5277,-7.51,-7.5135,-7.5143,-7.5263,-7.5327,-7.5384,-7.4639,-7.4635,-7.4632,0,0,-7.5089,-7.5063,-7.5231,-7.522,-7.5198,-7.5116,-7.5157,-7.5096,-7.506,-7.5219,-7.5035,-7.5119,-7.5244,-7.524,-7.5255,-7.5681,-7.5538,-7.5705,-7.5975,-7.6106,-7.6159,-7.6204,-7.6355,-7.6411,-7.5736,-7.5737,-7.5738,0,-7.535,-7.5487,-7.5336,-7.5462,-7.5485,-7.5263,-7.5434,-7.5431,-7.5432,-7.5453,-7.5328,-7.5479,-7.5454,-7.5666,-7.577,-7.579,-7.5832,-7.5709,-7.6163,-7.6207,-7.6248,-7.639,-7.6447,-7.5757,-7.5755,-7.5753,-7.5751,0,-7.5809,-7.5908,-7.6047,-7.6049,-7.6087,-7.6236,-7.6109,-7.6166,-7.606,-7.5992,-7.6156,-7.6118,-7.6165,-7.6208,-7.6107,-7.6406,-7.6338,-7.6192,-7.597,-7.6335,-7.6465,-7.6518,-7.5787,-7.5779,-7.5773,-7.5768,0,0,-7.6446,-7.6361,-7.6415,-7.6412,-7.637,-7.6444,-7.6583,-7.6626,-7.6678,-7.6686,-7.6798,-7.6909,-7.6771,-7.6789,-7.6685,-7.6801,-7.7138,-7.6638,-7.6635,-7.6732,-7.7465,-7.7576,-7.7641,-7.7044,-7.7053,-7.7061,-7.7466,0,-7.6856,-7.7084,-7.6952,-7.7201,-7.7289,-7.708,-7.72,-7.7189,-7.713,-7.7197,-7.7132,-7.7212,-7.7026,-7.7034,-7.7139,-7.7075,-7.7283,-7.7044,-7.7147,-7.7153,-7.7156,-7.7709,-7.7826,-7.821,-7.7516,-7.7525,-7.7531,0,-7.7363,-7.7389,-7.7647,-7.7585,-7.7618,-7.7729,-7.7756,-7.7824,-7.7807,-7.7755,-7.7775,-7.7642,-7.7775,-7.7558,-7.7739,-7.7579,-7.7613,-7.7589,-7.76,-7.7604,-7.7364,-7.7727,-7.8329,-7.8387,-7.761,-7.7604,-7.7598,0,-7.7801,-7.79,-7.8066,-7.807,-7.8004,-7.8087,-7.8064,-7.8035,-7.8069,-7.8094,-7.8114,-7.8158,-7.8181,-7.8218,-7.8101,-7.7953,-7.8298,-7.8071,-7.8259,-7.8263,-7.834,-7.8337,-7.8956,-7.8366,-7.8365,-7.8364,-7.8363,0,-7.8271,-7.8437,-7.8261,-7.8363,-7.8542,-7.8389,-7.8571,-7.8526,-7.8502,-7.8593,-7.8416,-7.8505,-7.8345,-7.842,-7.833,-7.8493,-7.8505,-7.8468,-7.8442,-7.8483,-7.8488,-7.8503,-7.8473,-7.8379,-7.8376,-7.8373,-7.837,0,-7.879,-7.8679,-7.8845,-7.8768,-7.8752,-7.8888,-7.8822,-7.8915,-7.8842,-7.8959,-7.8978,-7.8866,-7.8943,-7.883,-7.8897,-7.8836,-7.906,-7.8995,-7.9066,-7.9046,-7.924,-7.9223,-7.989,-7.9969,-7.933,-7.9336,-7.9341,0,-7.9096,-7.9218,-7.9153,-7.9199,-7.9185,-7.9263,-7.9295,-7.915,-7.9192,-7.9181,-7.9275,-7.9337,-7.9379,-7.9513,-7.9439,-7.9489,-7.9422,-7.9652,-7.9429,-7.9466,-7.9424,-7.9418,-7.9429,-7.9698,-7.9706,-7.9712,-7.9717,0,-7.9652,-7.959,-7.9642,-7.9677,-7.972,-7.9741,-7.9748,-7.9797,-7.9644,-7.9701,-7.9776,-7.9808,-7.9874,-7.9939,-7.9969,-7.9946,-7.9809,-7.9788,-7.9834,-7.9877,-7.9913,-7.9895,-7.9189,-7.9774,-7.9768,-7.9764,-7.9761,-7.9759,-8.0072,-8.017,-8.0138,-8.0203,-8.0192,-8.0203,-8.0285,-8.0222,-8.0281,-8.0321,-8.0233,-8.0331,-8.031,-8.0336,-8.0329,-8.0404,-8.0304,-8.0371,-8.0388,-8.0406,-8.0436,-7.9902,-8.041,-8.0408,-8.0406,-8.0405,-8.0404,0,-8.0617,-8.0586,-8.0647,-8.0661,-8.0712,-8.0574,-8.0575,-8.0627,-8.0714,-8.0705,-8.0749,-8.0836,-8.0898,-8.0828,-8.0876,-8.095,-8.0888,-8.0968,-8.096,-8.0958,-8.0524,-8.0478,-8.1017,-8.1017,-8.1017,-8.1017,-8.1017,-8.1017,-8.0907,-8.1063,-8.0999,-8.1149,-8.1117,-8.1208,-8.1221,-8.123,-8.1222,-8.1326,-8.1375,-8.1328,-8.1295,-8.1339,-8.139,-8.1367,-8.1394,-8.1496,-8.1453,-8.1048,-8.0988,-8.0931,-8.0887,-8.1504,-8.1504,-8.1879,-8.1883,-8.1886]},{"header":{"parameterUnit":"m.s-1","parameterCategory":1,"la1":30.2991,"la2":30.254,"lo1":-89.0895,"lo2":-89.0444,"dy":0.0017,"dx":0.0017,"nx":28,"ny":28,"refTime":"2024-06-18T03:00:00:Z","depth":0,"parameterNumber":3,"parameterNumberName":"V-component_of_WINDS"},"data":[0,0,0,0,0,0,0,0,0,0,0,0,0,0,0,0,0,0,0,0,0,0,0,0,0,0,0,0,0,0,0,0,0,0,0,0,0,0,0,0,0,0,0,0,0,0,0,0,0,0,0,0,0,0,0,0,0,0,-0.1061,-0.1061,0,-0.1098,-0.1099,-0.1099,-0.1204,-0.1206,-0.1209,-0.1211,-0.1244,-0.1243,-0.1242,0,0,0,0,0,0,0,0,0,0,0,0,0,-0.1073,-0.1073,-0.1061,-0.1061,-0.1061,-0.1098,-0.1099,-0.1099,-0.1204,-0.1206,-0.1209,-0.1212,-0.1245,-0.1243,-0.1242,0,0,0,0,0,0,0,0,0,0,0,0,0,-0.1085,-0.1072,-0.106,-0.1118,-0.1124,-0.1098,-0.1099,-0.1099,-0.1203,-0.1206,-0.121,-0.1213,-0.1245,-0.1243,-0.1241,-0.1161,0,0,-0.1236,-0.1235,0,0,0,0,0,0,0,0,-0.1084,-0.1084,-0.1109,-0.1114,-0.112,-0.115,-0.1116,-0.112,-0.1202,-0.1173,-0.1211,-0.1215,-0.121,-0.1211,-0.121,-0.1163,-0.1164,-0.1236,-0.1234,-0.1234,-0.1233,0,0,0,0,0,0,0,-0.1083,-0.1083,-0.1075,-0.1109,-0.1116,-0.114,-0.1146,-0.1117,-0.1171,-0.1176,-0.1183,-0.1187,-0.1213,-0.1212,-0.1212,-0.1165,-0.1236,-0.1234,-0.1233,-0.1232,-0.1051,-0.1047,0,0,0,0,0,0,-0.1075,-0.1082,-0.1074,-0.1077,-0.111,-0.1137,-0.1143,-0.1137,-0.1172,-0.1181,-0.1184,-0.1191,-0.1213,-0.1214,-0.1213,-0.112,-0.1234,-0.1232,-0.1231,-0.1054,-0.105,-0.1046,0,0,0,0,0,0,-0.1075,-0.1073,-0.1073,-0.1081,-0.1083,-0.1133,-0.1125,-0.1136,-0.1135,-0.1178,-0.1188,-0.1172,-0.1216,-0.1216,-0.1173,-0.1123,-0.1231,-0.1229,-0.1059,-0.1053,-0.1048,-0.0933,0,0,0,0,0,0,-0.1075,-0.1073,-0.1044,-0.108,-0.1082,-0.1033,-0.1122,-0.1134,-0.1132,-0.1142,-0.117,-0.1178,-0.1219,-0.1175,-0.1171,-0.1122,-0.1228,-0.1064,-0.1056,-0.105,-0.0942,-0.0924,-0.091,0,0,0,0,0,-0.1075,-0.101,-0.1042,-0.104,-0.1048,-0.103,-0.1031,-0.1081,-0.1127,-0.1098,-0.1126,-0.1177,-0.1129,-0.117,-0.1167,-0.1116,-0.1067,-0.1058,-0.105,-0.0949,-0.0928,-0.091,0,0,0,0,0,0,-0.0965,-0.1015,-0.1052,-0.0997,-0.1008,-0.1048,-0.1012,-0.1057,-0.1055,-0.1064,-0.1125,-0.113,-0.1078,-0.1093,-0.1138,-0.1039,-0.1106,-0.1097,-0.1031,-0.1011,-0.0995,-0.0992,-0.1226,0,0,0,0,0,-0.0935,-0.0918,-0.0962,-0.0909,-0.0913,-0.0961,-0.0956,-0.0993,-0.1007,-0.1012,-0.1037,-0.1046,-0.1033,-0.1023,-0.1014,-0.0945,-0.0951,-0.0908,-0.0892,-0.0879,-0.0869,-0.0831,-0.0811,-0.1019,-0.1019,-0.1019,0,0,-0.0871,-0.0897,-0.0882,-0.0888,-0.0901,-0.088,-0.0965,-0.094,-0.0924,-0.1007,-0.0968,-0.0986,-0.1001,-0.0944,-0.092,-0.0955,-0.0813,-0.0868,-0.0857,-0.0855,-0.082,-0.08,-0.0783,-0.1013,-0.1014,-0.1015,0,0,-0.0744,-0.0763,-0.072,-0.0732,-0.0751,-0.0784,-0.0773,-0.0806,-0.0821,-0.0784,-0.0845,-0.0826,-0.0804,-0.0811,-0.0811,-0.0686,-0.0732,-0.0681,-0.0596,-0.0558,-0.0542,-0.0528,-0.048,-0.0463,-0.0672,-0.0672,-0.0671,0,-0.0662,-0.0635,-0.0692,-0.0662,-0.0661,-0.0738,-0.0693,-0.0701,-0.0716,-0.0712,-0.0752,-0.0724,-0.0739,-0.0684,-0.0653,-0.0652,-0.0639,-0.0677,-0.054,-0.0527,-0.0514,-0.0469,-0.0452,-0.0665,-0.0666,-0.0667,-0.0667,0,-0.0532,-0.0511,-0.0474,-0.0487,-0.0483,-0.0445,-0.0494,-0.0483,-0.052,-0.0547,-0.0506,-0.0528,-0.0523,-0.0513,-0.0549,-0.0461,-0.0482,-0.053,-0.0599,-0.0487,-0.0446,-0.0429,-0.0656,-0.0658,-0.066,-0.0662,0,0,-0.0335,-0.0381,-0.0366,-0.0372,-0.0399,-0.0383,-0.0349,-0.0345,-0.0333,-0.034,-0.031,-0.0289,-0.0333,-0.0333,-0.0371,-0.0338,-0.0233,-0.039,-0.0391,-0.0357,-0.0135,-0.0097,-0.0076,-0.0265,-0.0262,-0.026,-0.0133,0,-0.0214,-0.0159,-0.0208,-0.0142,-0.0123,-0.0194,-0.0164,-0.0175,-0.02,-0.0185,-0.0212,-0.0195,-0.0256,-0.0256,-0.0227,-0.0252,-0.0189,-0.0263,-0.0235,-0.0234,-0.0227,-0.0055,-0.0016,0.0106,-0.0117,-0.0115,-0.0113,0,-0.0064,-0.0065,0.0002,-0.0028,-0.0021,0.0007,0.0007,0.0021,0.0007,-0.0013,-0.0013,-0.0059,-0.0024,-0.0093,-0.0044,-0.0093,-0.0085,-0.0095,-0.0092,-0.0089,-0.0165,-0.0045,0.0143,0.0162,-0.0088,-0.009,-0.0092,0,0.0076,0.0091,0.0133,0.013,0.0096,0.0118,0.0105,0.0087,0.0093,0.0094,0.0097,0.0103,0.0106,0.0113,0.007,0.0024,0.0126,0.0053,0.0113,0.0114,0.0139,0.0139,0.0334,0.0141,0.014,0.014,0.014,0,0.0219,0.0264,0.0196,0.0223,0.0272,0.0215,0.0266,0.0246,0.0231,0.0254,0.0192,0.0216,0.0157,0.0176,0.0143,0.019,0.0192,0.0179,0.017,0.0186,0.0188,0.0192,0.0184,0.0145,0.0144,0.0143,0.0142,0,0.0384,0.034,0.0382,0.0346,0.0338,0.0376,0.0346,0.0371,0.0342,0.0373,0.0377,0.0333,0.0351,0.0309,0.0322,0.03,0.0368,0.0344,0.0372,0.0366,0.043,0.0426,0.0637,0.0663,0.0451,0.0453,0.0455,0,0.0479,0.0512,0.0479,0.0489,0.0479,0.0497,0.0502,0.0448,0.0457,0.0444,0.0472,0.0484,0.0492,0.0526,0.0497,0.0507,0.0485,0.0558,0.0486,0.0502,0.049,0.0489,0.0494,0.0574,0.0577,0.0579,0.0581,0,0.0654,0.063,0.0639,0.0642,0.065,0.065,0.0645,0.0658,0.06,0.0614,0.0631,0.0637,0.065,0.0665,0.0669,0.0658,0.0612,0.0603,0.0618,0.0636,0.0652,0.0647,0.0416,0.0599,0.0597,0.0596,0.0595,0.0594,0.0788,0.0815,0.0797,0.081,0.08,0.0798,0.0819,0.0793,0.0806,0.0812,0.0779,0.0805,0.0792,0.0792,0.0786,0.0807,0.0774,0.0795,0.0801,0.0808,0.0819,0.0647,0.0807,0.0806,0.0806,0.0805,0.0805,0,0.0962,0.0947,0.0959,0.0954,0.0965,0.0917,0.091,0.0924,0.0946,0.0937,0.0946,0.0968,0.0983,0.0954,0.0965,0.0988,0.0967,0.0993,0.0992,0.0991,0.0847,0.0834,0.1009,0.1009,0.1009,0.1009,0.1009,0.1009,0.1054,0.1098,0.1073,0.1112,0.1096,0.1119,0.112,0.1118,0.1111,0.1137,0.1149,0.1129,0.1114,0.1123,0.1135,0.1127,0.1135,0.1169,0.1154,0.102,0.1,0.0982,0.0969,0.1171,0.1171,0.1296,0.1298,0.1299]}]]